Weather History for Cozumel, Mexico

Change the Weather History Date:

Tuesday, March 19, 2013

  Actual Average Record
Temperature  
Mean Temperature 76 °F -  
Max Temperature 82 °F 84 °F 93 °F (2003)
Min Temperature 69 °F 71 °F 59 °F (2011)
Cooling Degree Days 10    
Growing Degree Days 26 (Base 50)    
Moisture  
Dew Point 70 °F    
Average Humidity 83    
Maximum Humidity 100    
Minimum Humidity 62    
Precipitation  
Precipitation 0.00 in - - ()
Sea Level Pressure  
Sea Level Pressure 29.92 in    
Wind  
Wind Speed 7 mph ()    
Max Wind Speed 15 mph    
Max Gust Speed -    
Visibility 7.5 miles    
Events      
Averages and records for this station are not official NWS values.
T = Trace of Precipitation, MM = Missing Value Source: Averaged Metar Reports

Daily Weather History Graph

Daily Weather History Graph

Search for Another Location

Airport:

Trip Planner

Search our weather history database for the weather conditions in past years. The results will help you decide how hot, cold, wet, or windy it might be!

Date:

Astronomy

Mar. 19, 2013 Rise Set
Actual Time 5:52 AM CST 5:58 PM CST
Civil Twilight 5:30 AM CST 6:20 PM CST
Nautical Twilight 5:04 AM CST 6:46 PM CST
Astronomical Twilight 4:38 AM CST 7:12 PM CST
Moon 11:23 AM CST (3/19) 12:03 AM CST (3/19)
Length of Visible Light 12h 50m
Length of Day
12h 06m
Waxing Crescent, 50% of the Moon is Illuminated
Mar 19
Waxing Crescent
Mar 27
Full
Apr 2
Last Quarter
Apr 10
New
Apr 18
First Quarter

Hourly Weather History & Observations

Time (CST) Temp. Heat Index Dew Point Humidity Pressure Visibility Wind Dir Wind Speed Gust Speed Precip Events Conditions
12:42 AM 73.4 °F - 71.6 °F 94% 29.90 in 7.0 mi SSE 6.9 mph - N/A   Partly Cloudy
1:42 AM 71.6 °F - 69.8 °F 94% 29.87 in 7.0 mi SE 5.8 mph - N/A   Clear
2:48 AM 71.6 °F - 69.8 °F 94% 29.90 in 7.0 mi SE 6.9 mph - N/A   Clear
3:40 AM 71.6 °F - 69.8 °F 94% 29.88 in 7.0 mi SE 3.5 mph - N/A   Partly Cloudy
4:45 AM 69.8 °F - 69.8 °F 100% 29.88 in 7.0 mi SE 3.5 mph - N/A   Clear
5:47 AM 69.8 °F - 69.8 °F 100% 29.88 in 7.0 mi SE 3.5 mph - N/A   Partly Cloudy
6:42 AM 69.8 °F - 69.8 °F 100% 29.93 in 8.0 mi ESE 3.5 mph - N/A   Scattered Clouds
7:42 AM 77.0 °F - 71.6 °F 83% 29.95 in 8.0 mi SE 9.2 mph - N/A   Scattered Clouds
8:47 AM 78.8 °F - 71.6 °F 78% 30.01 in 8.0 mi SE 12.7 mph - N/A   Mostly Cloudy
9:44 AM 80.6 °F 83.9 °F 69.8 °F 70% 29.97 in 8.0 mi SSE 11.5 mph - N/A   Mostly Cloudy
10:46 AM 80.6 °F 83.9 °F 69.8 °F 70% 29.98 in 8.0 mi SE 9.2 mph - N/A   Mostly Cloudy
11:43 AM 80.6 °F 83.9 °F 69.8 °F 70% 29.94 in 8.0 mi SE 12.7 mph - N/A   Mostly Cloudy
12:45 PM 82.4 °F 86.3 °F 69.8 °F 66% 29.94 in 8.0 mi SE 10.4 mph - N/A   Mostly Cloudy
1:44 PM 82.4 °F 85.4 °F 68.0 °F 62% 29.92 in 8.0 mi SSE 11.5 mph - N/A   Mostly Cloudy
2:50 PM 82.4 °F 86.3 °F 69.8 °F 66% 29.92 in 8.0 mi SE 9.2 mph - N/A   Scattered Clouds
3:42 PM 80.6 °F 83.9 °F 69.8 °F 70% 29.90 in 8.0 mi ESE 13.8 mph - N/A   Scattered Clouds
4:41 PM 78.8 °F - 69.8 °F 74% 29.90 in 8.0 mi ESE 15.0 mph - N/A   Scattered Clouds
5:41 PM 77.0 °F - 69.8 °F 78% 29.88 in 8.0 mi ESE 11.5 mph - N/A   Scattered Clouds
6:43 PM 75.2 °F - 69.8 °F 83% 29.92 in 7.0 mi ESE 9.2 mph - N/A   Scattered Clouds
7:40 PM 73.4 °F - 69.8 °F 88% 29.94 in 7.0 mi ESE 8.1 mph - N/A   Partly Cloudy
8:46 PM 73.4 °F - 69.8 °F 88% 29.96 in 7.0 mi ESE 8.1 mph - N/A   Partly Cloudy
9:42 PM 71.6 °F - 69.8 °F 94% 29.93 in 7.0 mi SE 6.9 mph - N/A   Partly Cloudy
10:43 PM 71.6 °F - 69.8 °F 94% 29.92 in 7.0 mi SE 5.8 mph - N/A   Partly Cloudy